Location: Farvagny-le-Grand
(46.7213°N, 7.0654°E)
Time: 02:10:52
(UTC+00:00)

Daily predictions for brighter satellites

Satellite Brightness Start Highest point End
(mag) Time Altitude Azimuth Time Altitude Azimuth Time Altitude Azimuth
USA 267 4.3 01:44:35 10° ENE 01:48:35 38° ENE 01:48:35 38° ENE
Resurs 1-4 Rocket 4.5 01:56:23 10° N 01:57:28 16° N 01:57:28 16° N
CENTAUR R/B 4.2 01:55:04 10° NW 02:02:20 40° NE 02:10:25 10° ESE
Cosmos 2360 Rocket 4.4 02:10:51 10° NNW 02:22:23 - SE 02:12:08 17° N
ADEOS II 4.0 02:15:37 10° N 02:17:29 22° N 02:17:29 22° N
IDEFIX/ARIANE 42P 4.2 02:17:02 10° NNE 02:19:42 30° NNE 02:19:42 30° NNE
USA 234 3.7 02:19:15 10° ESE 02:24:09 54° ESE 02:24:09 54° ESE
Cosmos 1553 Rocket 4.4 02:32:42 60° ENE 02:32:42 60° ENE 02:38:12 10° NNE
Lacrosse 5 3.4 02:40:09 31° E 02:40:09 31° E 02:42:59 10° ESE
Cosmos 2082 Rocket 4.0 02:42:36 22° NNW 02:42:36 22° NNW 02:45:23 10° N
Cosmos 2333 Rocket 3.7 02:39:31 10° NNW 02:44:48 35° NE 02:50:02 10° ESE
MSX 4.2 02:39:25 10° NNE 02:44:10 60° NE 02:44:10 60° NE
Cosmos 2221 4.3 02:53:27 28° NNE 02:53:27 28° NNE 02:55:38 10° NNE
Cosmos 2219 Rocket 3.5 02:54:32 10° NNW 02:59:49 38° NE 03:05:04 10° ESE
CZ-2C R/B 3.3 02:57:18 10° NNE 03:01:47 41° E 03:02:02 41° ESE
Cosmos 1606 4.2 03:12:57 35° ENE 03:12:57 35° ENE 03:16:03 10° NNE
USA 238 DEB 3.9 03:06:46 10° NW 03:14:02 81° NE 03:21:37 10° SE
GEOS 3 Rocket 4.4 03:09:09 10° NNE 03:13:38 40° NNW 03:13:38 40° NNW
USA 238 3.9 03:06:53 10° NW 03:14:09 80° NE 03:21:43 10° SE
COSMOS 2428 3.9 03:10:47 10° NNW 03:16:13 42° NE 03:21:38 10° SE
ATLAS 3B R/B 4.5 03:11:18 10° NNW 03:17:07 28° NNE 03:23:07 10° E
ATLAS 5 CENTAUR R/B 3.6 03:19:18 16° SE 03:20:27 18° ESE 03:23:23 10° ENE
S3M 3.8 03:21:13 68° SW 03:22:00 79° W 03:28:15 10° N
ARIANE 5 R/B 3.3 03:19:51 10° N 03:23:22 39° NNW 03:23:22 39° NNW
Cosmos 1745 Rocket 3.9 03:19:25 10° NNW 03:25:41 67° W 03:26:32 60° SW
CZ-4C R/B 4.2 03:30:56 40° ENE 03:30:56 40° ENE 03:34:09 10° N
USA 267 3.5 03:27:42 10° NE 03:34:03 56° NNW 03:35:57 42° WNW
FENGYUN 3A 4.4 03:29:17 10° NNE 03:34:35 51° E 03:39:51 10° S
Cosmos 2322 3.7 03:31:15 10° NNW 03:36:58 83° ENE 03:42:38 10° SSE
Cosmos 1709 Rocket 4.0 03:31:04 10° N 03:37:29 90° E 03:43:52 10° S
H-2A R/B 3.2 03:37:59 10° SE 03:41:56 41° ENE 03:45:51 10° N
NOSS 3-2 (A) 4.0 03:35:14 10° NW 03:42:44 66° WSW 03:51:11 10° SSE
Spot 4 Rocket 4.2 03:41:29 10° N 03:46:26 49° WNW 03:46:28 49° WNW
COSMOS 2487 3.1 03:50:12 46° N 03:50:12 46° N 03:52:43 10° NNE
Cosmos 1833 4.2 03:48:29 50° WSW 03:49:44 64° WNW 03:55:21 10° NNE
Cosmos 2344 3.5 03:46:42 39° WSW 03:49:46 72° NW 03:57:51 10° NE
CENTAUR R/B 3.1 03:45:43 10° NW 03:53:51 78° SW 04:02:45 10° SSE
Geosat 4.5 03:49:24 10° NE 03:54:24 59° ESE 03:58:04 18° S
Cosmos 2251 Rocket 3.4 03:53:53 42° SW 03:55:42 74° WNW 04:01:07 10° NNE
Cosmos 614 Rocket 4.0 03:54:14 26° SSW 03:57:15 80° ESE 04:02:30 10° NNE
ADEOS II 4.3 03:58:04 10° NW 03:58:26 10° NW 03:58:26 10° NW
Cosmos 2360 Rocket 4.1 04:04:24 14° SSW 04:04:24 14° SSW 04:05:11 10° SSW
ISS -3.5 04:00:41 62° N 04:00:52 64° NNE 04:04:13 10° ESE
IDEFIX/ARIANE 42P 4.1 03:57:38 10° NNW 04:00:31 19° NW 04:00:31 19° NW
Cosmos 1933 3.7 03:58:06 14° S 04:01:29 63° E 04:05:31 10° NNE
Meteor 2-17 Rocket 4.3 03:56:50 10° NNW 04:02:51 70° W 04:08:51 10° S
ALOS 2.2 03:58:22 10° NNE 04:03:05 84° ESE 04:07:02 14° SSW
PAYLOAD A 4.3 03:58:03 10° N 04:03:13 52° WNW 04:05:04 36° WSW
CZ-2C R/B 3.9 04:01:45 10° N 04:04:14 29° NW 04:04:14 29° NW
Cosmos 2237 Rocket 3.5 04:02:14 10° NNW 04:07:36 41° NE 04:12:55 10° SE
Cosmos 2333 4.3 04:02:21 10° NW 04:07:58 53° WSW 04:13:34 10° S
USA 234 3.7 04:03:12 10° SSE 04:09:09 37° SW 04:11:34 28° W
Meteor 1-31 Rocket 4.1 04:07:09 10° NNE 04:10:49 40° E 04:14:26 10° S
Cosmos 407 Rocket 3.9 04:07:15 10° S 04:12:20 62° ESE 04:17:25 10° NNE
CZ-4C R/B 2.2 04:10:13 23° SSW 04:13:24 73° SE 04:19:17 10° NE
PSLV R/B 3.7 04:11:25 10° N 04:15:40 52° WNW 04:17:21 32° SW
USA 276 2.1 04:16:02 61° WNW 04:16:25 70° NNW 04:19:37 10° ENE
Lacrosse 5 2.3 04:19:24 31° W 04:20:55 39° SW 04:25:35 10° SSE
NOSS 3-4 (A) 3.5 04:16:30 15° SSW 04:21:26 75° SE 04:27:43 10° NE
NOSS 3-4 (C) 3.5 04:16:34 15° SSW 04:21:32 74° SE 04:27:49 10° NE
Cosmos 192 4.2 04:18:52 10° NNW 04:23:48 74° WSW 04:28:45 10° SSE
Cosmos 1328 Rocket 4.1 04:20:14 10° S 04:24:27 59° E 04:28:43 10° NNE
NOSS 3-2 (C) 4.1 04:17:18 10° NW 04:24:45 59° WSW 04:33:08 10° SSE
Cosmos 2227 Rocket 4.3 04:22:22 10° SSE 04:27:03 27° ESE 04:31:45 10° NE
Cosmos 2333 Rocket 2.5 04:23:44 10° NW 04:29:11 45° WSW 04:34:38 10° S
Cosmos 2221 4.4 04:30:19 14° NW 04:30:19 14° NW 04:31:56 10° NNW
SL-16 R/B 4.3 04:25:38 10° N 04:30:22 26° NE 04:35:05 10° ESE
Cosmos 1484 Rocket 2.7 04:29:02 10° N 04:32:39 53° WNW 04:35:27 16° SSW
Cosmos 1805 Rocket 4.3 04:29:36 10° NNW 04:33:31 31° W 04:37:25 10° SSW
Cosmos 1437 Rocket 2.9 04:30:02 10° S 04:34:06 83° E 04:38:07 10° NNE
Cosmos 1470 Rocket 4.0 04:31:14 10° N 04:35:34 63° E 04:39:51 10° SSE
Landsat 5 4.0 04:32:57 10° SSW 04:36:21 30° W 04:39:50 10° NW
ATLAS 2AS CENTAUR R/B 3.3 04:28:52 10° SSW 04:36:41 69° ESE 04:44:27 10° NE
CZ-2C R/B 3.4 04:35:57 10° N 04:39:48 25° WNW 04:41:25 21° W
Cosmos 2315 Rocket 4.4 04:34:41 10° SW 04:40:22 40° WNW 04:46:11 10° N
CZ-4B R/B 1.6 04:37:24 10° SSE 04:40:27 64° ENE 04:43:29 10° N
COSMO-SKYMED 1 2.6 04:37:04 10° SSE 04:41:24 86° ENE 04:45:46 10° NNW
Cosmos 2297 Rocket 3.4 04:36:43 10° S 04:42:02 44° ESE 04:47:22 10° NE
Cosmos 2219 Rocket 2.6 04:38:33 10° NW 04:43:47 39° WSW 04:49:00 10° S
Cosmos 1782 2.7 04:40:05 10° S 04:44:02 82° W 04:48:01 10° N
Cosmos 1606 4.2 04:47:57 18° WNW 04:48:17 18° WNW 04:51:03 10° NNW
Cosmos 1140 Rocket 3.4 04:44:32 10° SSW 04:49:44 76° WNW 04:54:57 10° NNE
Sich 1 3.9 04:46:25 10° NNW 04:50:08 27° W 04:53:49 10° SW
Cosmos 1500 3.4 04:48:48 10° N 04:52:37 76° E 04:56:25 10° SSE
Cosmos 1980 3.7 04:46:57 10° NNW 04:52:40 88° ENE 04:58:20 10° SSE
Meteor 1-26 Rocket 4.3 04:47:06 10° SSW 04:52:49 72° WNW 04:58:46 10° N
METEOR-M 4.3 04:48:33 10° N 04:53:42 49° WNW 04:58:49 10° SW
ERS-2 3.7 04:51:28 10° SE 04:54:52 39° ENE 04:58:18 10° N
Cosmos 1933 Rocket 4.0 04:51:32 10° N 04:56:00 70° E 05:00:26 10° SSE
Cosmos 1666 Rocket 4.1 04:53:22 10° NNW 04:57:23 36° W 05:01:24 10° SSW
Cosmos 2074 Rocket 4.0 04:52:10 10° NNW 04:58:15 58° W 05:04:18 10° S
COSMOS 2428 3.3 04:55:17 10° NW 05:00:24 35° WSW 05:05:30 10° S
MOS 1 Rocket 3.2 04:56:16 10° S 05:00:36 57° W 05:05:12 10° NNW
SeaSat 1 2.5 04:55:51 10° SSE 05:00:42 61° WSW 05:05:37 10° NW
BREEZE M DEB (TANK) 2.6 04:59:34 14° WNW 05:02:00 84° SSW 05:10:07 10° ESE
BREEZE-M DEB (TANK) 2.8 05:00:37 13° W 05:04:17 49° N 05:06:34 10° ENE
ATLAS 5 CENTAUR R/B 1.7 05:00:50 11° WSW 05:04:31 52° NW 05:08:58 10° NNE
YAOGAN 6 3.5 05:02:00 10° NNE 05:05:26 51° E 05:08:50 10° S
Cosmos 2154 Rocket 4.0 04:59:32 10° NNW 05:05:46 77° W 05:12:02 10° S
CZ-4B R/B 4.0 05:04:56 10° N 05:08:26 41° WNW 05:11:52 10° SW
ATLAS 3B R/B 3.0 05:01:52 10° NW 05:08:53 78° NE 05:16:11 10° SE
ADEOS 3.7 05:03:55 10° N 05:09:00 53° WNW 05:14:04 10° SW
Cosmos 1602 4.5 05:07:37 10° NNW 05:11:06 31° W 05:14:32 10° SSW
USA 267 4.2 05:10:30 10° ENE 05:16:22 37° N 05:22:13 10° WNW
H-2A R/B 3.3 05:14:58 10° SW 05:18:05 20° W 05:21:10 10° NW
Cosmos 1151 Rocket 3.8 05:16:07 10° SW 05:19:55 30° WNW 05:23:45 10° N
Cosmos 2219 3.3 05:16:14 10° SSW 05:21:53 84° ESE 05:27:34 10° NNE
NOSS 0 Rocket 4.3 05:18:37 10° NW 05:24:22 42° WSW 05:30:06 10° S
Cosmos 2184 Rocket 4.5 05:19:15 10° NNW 05:25:03 39° W 05:30:51 10° SSW
Cosmos 1763 Rocket 3.8 05:19:52 10° NNW 05:25:08 75° ENE 05:30:16 10° SSE
Cosmos 1633 Rocket 4.2 05:24:56 10° NW 05:28:18 22° W 05:31:38 10° SW
SKYMED 2 4.3 05:25:45 10° SSW 05:29:36 31° W 05:33:29 10° NNW
